Regional Weather Roundup
Issued by NWS

Home | Current Version | Previous Version | Text Only | Print | Product List | Glossary Off
Versions: 1 2 3 4 5 6 7 8 9 10 11 12 13 14 15 16 17 18 19 20 21 22 23 24 25 26 27 28 29 30 31 32 33 34 35 36 37 38 39 40 41 42 43 44 45 46 47 48 49 50

000
ASUS44 KLUB 311801
RWRTX
WEST TEXAS WEATHER ROUNDUP
NATIONAL WEATHER SERVICE LUBBOCK TX
100 PM CDT THU JUL 31 2014

NOTE: "FAIR" INDICATES FEW OR NO CLOUDS BELOW 12,000 FEET WITH NO
SIGNIFICANT WEATHER AND/OR OBSTRUCTIONS TO VISIBILITY.

TXZ004-006>008-010-012-014-016-OKZ002-311900-
TEXAS PANHANDLE/OKLAHOMA PANHANDLE

CITY           SKY/WX    TMP DP  RH WIND       PRES   REMARKS
AMARILLO       SUNNY     75  52  44 N10G18    30.25F
BORGER         MOSUNNY   76  54  46 N13       30.23F
CANADIAN       MOSUNNY   76  58  53 N8        30.18F
DALHART        PTSUNNY   73  53  49 MISG      30.28F
DUMAS          MOSUNNY   72  54  52 E6        30.26S
GUYMON         MOSUNNY   76  54  46 N8        30.21F
HEREFORD       MOSUNNY   76  51  41 N9        30.26S
PAMPA          MOSUNNY   72  53  51 NE7G17    30.23F
PERRYTON       MOSUNNY   75  56  51 NE7       30.21F
$$

TXZ026-029-035-045-048-311900-
SOUTHERN PANHANDLE/SOUTH PLAINS/ROLLING PLAINS

CITY           SKY/WX    TMP DP  RH WIND       PRES   REMARKS
CHILDRESS      PTSUNNY   76  61  59 NE9       30.16F
SEMINOLE       PTSUNNY   76  56  50 NE8G16    30.21F
LUBBOCK        PTSUNNY   78  55  44 NE9G17    30.21F
PLAINVIEW      MOSUNNY   77  52  41 NE7       30.20F
SNYDER         CLOUDY    73  60  63 NE12      30.17S
$$

TXZ052-054-060>062-072-078-127-140-154-169-311900-
PERMIAN BASIN/CONCHO VALLEY/BIG COUNTRY/EDWARDS PLATEAU

CITY           SKY/WX    TMP DP  RH WIND       PRES   REMARKS
ABILENE        CLOUDY    73  64  73 N15       30.12S
BIG SPRING     CLOUDY    78  60  52 N10       30.19F
BROWNWOOD      CLOUDY    77  64  65 N8        30.07F
JUNCTION       PTSUNNY   87  66  49 N10       30.07F
MIDLAND        CLOUDY    78  61  55 NE10      30.18F
ODESSA         PTSUNNY   78  60  53 NE12      30.18F
SAN ANGELO     CLOUDY    82  63  52 N10       30.11S
SONORA         MOSUNNY   82  64  54 N12       30.14S
SWEETWATER     CLOUDY    74  62  66 N9G18     30.19S
WINK           CLOUDY    76  62  62 VRB3      30.17F
$$

TXZ055-058-074-075-080-082-311900-
FAR WEST/SOUTHWEST MOUNTAINS/TRANS PECOS

CITY           SKY/WX    TMP DP  RH WIND       PRES   REMARKS
ALPINE         CLOUDY    69  62  76 NE10      30.31S
DRYDEN           N/A     90  65  43 NE13G21   30.10F
EL PASO        PTSUNNY   82  59  45 CALM      30.18F
FORT STOCKTON  CLOUDY    74  61  63 N13       30.19F
GUADALUPE PASS LGT RAIN  60  60 100 E24       30.29F VSB<1/4
MARFA          SUNNY     72  61  68 NE20      30.27F
PRESIDIO       FAIR      90  62  39 NE13G21   30.11S
$$

TXZ014-016-019-021>030-083-311900
TEXAS TECH WEST TEXAS MESONET/TEXAS PANHANDLE/NORTHERN SOUTH PLAINS

CITY           SKY/WX    TMP DP  RH WIND       PRES   REMARKS
ABERNATHY 5ENE   N/A     75  51  42 N9        30.22F
AMARILLO 9NNE    N/A     74  55  52 N7        30.24F
AMARILLO 7SSE    N/A     74  51  45 NE6       30.25F
AMHERST 1NE      N/A     73  50  43 NE8       30.24S
BOOTLEG 11WNW    N/A     73  47  39 N6        30.30F
CANADIAN 6E      N/A     74  55  50 N8        30.18F
CAPROCK CYN SP   N/A     75  54  48 NE12      30.19F
CHILDRESS 2NNE   N/A     75  62  64 N10       30.15F
CLARENDON 2WSW   N/A     74  53  47 N13       30.21R
CLAUDE 12SW      N/A     73  53  50 NE10      30.24F
DIMMITT 2NE      N/A     73  52  48 NE9       30.25F
FLOYDADA 2NNE    N/A     75  55  50 NE9       30.20F
FRIONA 2NE       N/A     73  45  37 N8        30.27F
GOODLETT 3W      N/A     75  61  61 N12       30.14S
HART 3N          N/A     73  52  47 N8        30.24F
HEREFORD 2NW     N/A     72  51  46 NE9       30.25F
MCLEAN 1E        N/A     73  55  54 NE10      30.19S
MEMPHIS 1NE      N/A     76  59  56 N9        30.17S
MULESHOE 2SSW    N/A     75  46  34 NE7       30.25F
OLTON 6S         N/A     74  49  40 NE9       30.23S
PALO DURO SP     N/A     76  51  41 NE8       30.25F
PAMPA 2E         N/A     73  55  54 NE10      30.23S
PLAINVIEW 1S     N/A     75  50  41 N9        30.22S
SILVERTON 7ESE   N/A     74  52  44 N10       30.21F
TULIA 2ENE       N/A     74  50  42 N13       30.23S
TURKEY 2WSW      N/A     76  57  50 N10       30.17F
UMBARGER 3NNE    N/A     73  50  45 N10       30.25F
$$

TXZ033>036-039>041-045>048-311900
TEXAS TECH WEST TEXAS MESONET/SOUTH PLAINS

CITY           SKY/WX    TMP DP  RH WIND       PRES   REMARKS
AIKEN 3WSW       N/A     75  55  50 NE9       30.23S
ANDREWS 2NE      N/A     76  56  49 NE9       30.20F
ANTON 6SSW       N/A     75  55  50 N6        30.22F
BROWNFIELD 2S    N/A     73  56  55 NE7       30.22F
DENVR CTY 7WNW   N/A     75  54  47 NE8       30.21F
GAIL 2ESE        N/A     75  58  53 N12       30.17F
LAMESA 2SE       N/A     74  57  55 N9        30.20F
LEVELLAND 4S     N/A     74  57  55 N8        30.23S
LUBBOCK 3WNW     N/A     77  54  45 N7        30.21F
MORTON 1ENE      N/A     74  56  54 N8        30.23F
ODONNELL 1N      N/A     73  56  56 N9        30.21F
PLAINS 3N        N/A     74  56  54 N12       30.23S
RALLS 1SE        N/A     74  57  54 N6        30.21F
REESE CENTER     N/A     74  55  50 N8        30.22S
SEAGRAVES 1SW    N/A     76  57  51 NE9       30.21S
SEMINOLE 2NNE    N/A     75  56  51 NE13      30.20F
SLATON 2NE       N/A     75  56  52 NE8       30.20F
SNYDER 3E        N/A     73  60  65 N10       30.16S
SUNDOWN 8SW      N/A     73  57  56 N10       30.23F
TAHOKA 3NNE      N/A     76  56  49 N8        30.20F
WOLFFORTH 6SSW   N/A     73  56  54 N5        30.22F
$$

TXZ031-032-036>038-042>044-311900-
TEXAS TECH WEST TEXAS MESONET/ROLLING PLAINS

CITY           SKY/WX    TMP DP  RH WIND       PRES   REMARKS
ASPERMONT 3NE    N/A     75  62  64 N8        30.14S
FLUVANNA 3WNW    N/A     75  58  55 N14       30.17F
GRAHAM 5SSW      N/A     74  56  54 N10       30.19F
GUTHRIE 10WSW    N/A     75  60  58 N14       30.15S
HASKELL 1NW      N/A     72  62  71 N13       30.12F
KNOX CITY 3NW    N/A     75  60  59 N12       30.13S
LK A HENRY 1NW   N/A     78  58  51 N9        30.15F
NORTHFIELD 1S    N/A     77  60  55 NE9       30.16F
ODELL 4ENE       N/A     71  65  79 N14       30.13F
PADUCAH 10SW     N/A     75  60  58 N9        30.16S
POST 1NE         N/A     78  56  46 N10       30.17F
RRING SPRGS 3N   N/A     75  59  56 N9        30.18F
SEYMOUR 3NW      N/A     73  63  72 N12       30.11S
SPUR 1W          N/A     77  57  49 NE12      30.16S
WEINERT 2NNE     N/A     72  64  74 N14       30.13S
WHITE RVR 6NE    N/A     76  57  51 N7        30.17F
$$

TXZ052-054-060>062-072-078-127-140-154-169-311900-
TEXAS TECH WEST TEXAS MESONET/PERMIAN BASIN/
CONCHO VALLEY/BIG COUNTRY/EDWARDS PLATEAU

CITY           SKY/WX    TMP DP  RH WIND       PRES   REMARKS
COYANOSA 2N      N/A     75  61  60 N6        30.18F
JUNCTION 1SSW    N/A     85  67  55 N7        30.08S
MERTZON 3NNE     N/A     81  63  54 N9        30.14S
SAN ANGELO 7NW   N/A     80  61  52 N6        30.12S
STRLNG CT 4WSW   N/A     77  61  58 N12       30.16F
ST LAWRNCE 5SW   N/A     77  61  58 N10       30.17S
SWEETWATR 11SW   N/A     73  62  67 N12       30.17S
WALL 1E          N/A     77  63  61 NE10      30.12S
$$

TXZ055-058-074-075-080-082-311900-
TEXAS TECH WEST TEXAS MESONET/FAR WEST/SOUTHWEST MOUNTAINS/TRANS PECOS

CITY           SKY/WX    TMP DP  RH WIND       PRES   REMARKS
PRSMN GAP BBNP   N/A     85  64  49 NE17      30.12F
GUADLPE MTN NP   N/A     62  58  90 E2        30.32F
$$


USA.gov is the U.S. government's official web portal to all federal, state and local government web resources and services.